| time (UTC) | temp F | wind direction | speed MPH | gust MPH | rain 1hr in | rain 24hr in | rain mn in | humidity % | barometer mb |
| 20260906184904 | 96 | 247 | 2.0 | 12.0 | 0.00 | 0.00 | 0.00 | 33 | 1014.8 |
| 20260906184405 | 96 | 255 | 3.0 | 8.0 | 0.00 | 0.00 | 0.00 | 33 | 1014.8 |
| 20260906183905 | 97 | 233 | 1.0 | 8.0 | 0.00 | 0.00 | 0.00 | 33 | 1014.9 |
| 20260906183405 | 97 | 250 | 2.0 | 12.0 | 0.00 | 0.00 | 0.00 | 32 | 1014.8 |
| 20260906181405 | 100 | 231 | 1.0 | 7.0 | 0.00 | 0.00 | 0.00 | 27 | 1014.7 |
| 20260906180904 | 100 | 244 | 0.0 | 3.0 | 0.00 | 0.00 | 0.00 | 24 | 1014.6 |
| 20260906180405 | 100 | 213 | 0.0 | 5.0 | 0.00 | 0.00 | 0.00 | 23 | 1014.7 |
| 20260906174904 | 101 | 234 | 0.0 | 3.0 | 0.00 | 0.00 | 0.00 | 24 | 1014.7 |
| 20260906174405 | 101 | 202 | 0.0 | 3.0 | 0.00 | 0.00 | 0.00 | 24 | 1014.7 |
| 20260906173405 | 101 | 209 | 0.0 | 7.0 | 0.00 | 0.00 | 0.00 | 23 | 1014.7 |
| 20260906171905 | 101 | 214 | 3.0 | 6.0 | 0.00 | 0.00 | 0.00 | 22 | 1014.7 |
| 20260906171405 | 102 | 216 | 1.0 | 5.0 | 0.00 | 0.00 | 0.00 | 22 | 1014.7 |
| 20260906170905 | 102 | 212 | 0.0 | 3.0 | 0.00 | 0.00 | 0.00 | 21 | 1014.7 |
| 20260906170405 | 101 | 190 | 0.0 | 7.0 | 0.00 | 0.00 | 0.00 | 22 | 1014.7 |
| 20260906164905 | 101 | 195 | 2.0 | 7.0 | 0.00 | 0.00 | 0.00 | 23 | 1014.7 |
| 20260906163905 | 101 | 188 | 4.0 | 8.0 | 0.00 | 0.00 | 0.00 | 22 | 1014.7 |
| 20260906163405 | 101 | 201 | 1.0 | 8.0 | 0.00 | 0.00 | 0.00 | 22 | 1014.8 |
| 20260906161904 | 102 | 221 | 2.0 | 7.0 | 0.00 | 0.00 | 0.00 | 22 | 1014.7 |
| 20260906161405 | 102 | 204 | 1.0 | 5.0 | 0.00 | 0.00 | 0.00 | 23 | 1014.7 |
| 20260906160405 | 101 | 216 | 3.0 | 8.0 | 0.00 | 0.00 | 0.00 | 23 | 1014.8 |
| 20260906154905 | 102 | 195 | 4.0 | 10.0 | 0.00 | 0.00 | 0.00 | 23 | 1014.8 |
| 20260906154405 | 101 | 185 | 2.0 | 7.0 | 0.00 | 0.00 | 0.00 | 23 | 1014.8 |
| 20260906153904 | 101 | 171 | 1.0 | 7.0 | 0.00 | 0.00 | 0.00 | 24 | 1014.8 |
| 20260906153405 | 101 | 181 | 2.0 | 9.0 | 0.00 | 0.00 | 0.00 | 24 | 1014.9 |
| 20260906151905 | 101 | 213 | 0.0 | 3.0 | 0.00 | 0.00 | 0.00 | 24 | 1014.9 |
| 20260906151405 | 102 | 190 | 3.0 | 8.0 | 0.00 | 0.00 | 0.00 | 24 | 1015.0 |
| 20260906150904 | 102 | 180 | 6.0 | 10.0 | 0.00 | 0.00 | 0.00 | 24 | 1015.0 |
| 20260906150405 | 102 | 155 | 2.0 | 8.0 | 0.00 | 0.00 | 0.00 | 24 | 1015.0 |
| 20260906144905 | 102 | 160 | 2.0 | 6.0 | 0.00 | 0.00 | 0.00 | 24 | 1015.2 |
| 20260906144405 | 101 | 174 | 0.0 | 7.0 | 0.00 | 0.00 | 0.00 | 24 | 1015.3 |
| 20260906143404 | 102 | 191 | 1.0 | 5.0 | 0.00 | 0.00 | 0.00 | 23 | 1015.4 |
| 20260906141905 | 102 | 176 | 4.0 | 7.0 | 0.00 | 0.00 | 0.00 | 23 | 1015.5 |
| 20260906141405 | 102 | 355 | 0.0 | 5.0 | 0.00 | 0.00 | 0.00 | 23 | 1015.6 |
| 20260906140905 | 102 | 60 | 0.0 | 2.0 | 0.00 | 0.00 | 0.00 | 23 | 1015.6 |
| 20260906140404 | 102 | 217 | 0.0 | 5.0 | 0.00 | 0.00 | 0.00 | 23 | 1015.7 |
| 20260906134905 | 101 | 233 | 1.0 | 3.0 | 0.00 | 0.00 | 0.00 | 24 | 1015.9 |
| 20260906134404 | 101 | 68 | 0.0 | 3.0 | 0.00 | 0.00 | 0.00 | 24 | 1015.9 |
| 20260906133904 | 101 | 65 | 0.0 | 3.0 | 0.00 | 0.00 | 0.00 | 24 | 1015.9 |
| 20260906133405 | 101 | 73 | 0.0 | 3.0 | 0.00 | 0.00 | 0.00 | 24 | 1016.0 |
| 20260906131905 | 100 | 182 | 0.0 | 2.0 | 0.00 | 0.00 | 0.00 | 25 | 1016.1 |
| 20260906131405 | 100 | 174 | 0.0 | 3.0 | 0.00 | 0.00 | 0.00 | 25 | 1016.2 |
| 20260906130905 | 100 | 158 | 1.0 | 5.0 | 0.00 | 0.00 | 0.00 | 26 | 1016.2 |
| 20260906124405 | 99 | 151 | 0.0 | 0.0 | 0.00 | 0.00 | 0.00 | 26 | 1016.4 |
| 20260906123905 | 98 | 322 | 0.0 | 0.0 | 0.00 | 0.00 | 0.00 | 26 | 1016.5 |
| 20260906123405 | 98 | 174 | 0.0 | 1.0 | 0.00 | 0.00 | 0.00 | 27 | 1016.6 |
| 20260906121905 | 98 | 76 | 0.0 | 0.0 | 0.00 | 0.00 | 0.00 | 27 | 1016.8 |
| 20260906121405 | 98 | 119 | 0.0 | 0.0 | 0.00 | 0.00 | 0.00 | 27 | 1016.8 |
| 20260906120905 | 98 | 51 | 0.0 | 0.0 | 0.00 | 0.00 | 0.00 | 28 | 1016.8 |
| 20260906120405 | 97 | 0 | 0.0 | 2.0 | 0.00 | 0.00 | 0.00 | 28 | 1016.9 |
| 20260906114905 | 96 | 45 | 0.0 | 3.0 | 0.00 | 0.00 | 0.00 | 29 | 1017.1 |
| 20260906114405 | 96 | 110 | 0.0 | 0.0 | 0.00 | 0.00 | 0.00 | 29 | 1017.1 |
| 20260906113905 | 96 | 80 | 0.0 | 0.0 | 0.00 | 0.00 | 0.00 | 29 | 1017.1 |
| 20260906113405 | 95 | 351 | 0.0 | 0.0 | 0.00 | 0.00 | 0.00 | 29 | 1017.2 |
| 20260906111905 | 95 | 109 | 0.0 | 0.0 | 0.00 | 0.00 | 0.00 | 30 | 1017.3 |
| 20260906111404 | 94 | 72 | 0.0 | 0.0 | 0.00 | 0.00 | 0.00 | 31 | 1017.3 |
| 20260906110904 | 94 | 67 | 0.0 | 0.0 | 0.00 | 0.00 | 0.00 | 31 | 1017.4 |
| 20260906110405 | 94 | 10 | 0.0 | 0.0 | 0.00 | 0.00 | 0.00 | 31 | 1017.4 |
| 20260906104905 | 92 | 21 | 0.0 | 0.0 | 0.00 | 0.00 | 0.00 | 33 | 1017.5 |
| 20260906104405 | 92 | 9 | 0.0 | 0.0 | 0.00 | 0.00 | 0.00 | 33 | 1017.6 |
| 20260906103405 | 91 | 337 | 0.0 | 0.0 | 0.00 | 0.00 | 0.00 | 34 | 1017.7 |
| 20260906101905 | 89 | 92 | 0.0 | 0.0 | 0.00 | 0.00 | 0.00 | 35 | 1017.9 |
| 20260906101405 | 89 | 67 | 1.0 | 6.0 | 0.00 | 0.00 | 0.00 | 35 | 1017.9 |
| 20260906100904 | 89 | 19 | 0.0 | 5.0 | 0.00 | 0.00 | 0.00 | 35 | 1017.9 |
| 20260906100406 | 89 | 61 | 0.0 | 0.0 | 0.00 | 0.00 | 0.00 | 36 | 1017.9 |
| 20260906094905 | 87 | 16 | 0.0 | 0.0 | 0.00 | 0.00 | 0.00 | 37 | 1017.9 |
| 20260906094404 | 87 | 9 | 0.0 | 0.0 | 0.00 | 0.00 | 0.00 | 37 | 1018.0 |
| 20260906093905 | 87 | 18 | 1.0 | 5.0 | 0.00 | 0.00 | 0.00 | 38 | 1017.9 |
| 20260906093404 | 87 | 30 | 0.0 | 5.0 | 0.00 | 0.00 | 0.00 | 39 | 1017.9 |
| 20260906091905 | 85 | 67 | 0.0 | 0.0 | 0.00 | 0.00 | 0.00 | 41 | 1017.9 |
| 20260906091405 | 85 | 44 | 0.0 | 0.0 | 0.00 | 0.00 | 0.00 | 43 | 1017.9 |
| 20260906090905 | 84 | 51 | 1.0 | 7.0 | 0.00 | 0.00 | 0.00 | 44 | 1017.9 |
| 20260906084905 | 82 | 38 | 5.0 | 7.0 | 0.00 | 0.00 | 0.00 | 45 | 1017.8 |
| 20260906084405 | 82 | 19 | 3.0 | 7.0 | 0.00 | 0.00 | 0.00 | 46 | 1017.8 |
| 20260906083905 | 82 | 35 | 5.0 | 9.0 | 0.00 | 0.00 | 0.00 | 45 | 1017.7 |
| 20260906083404 | 82 | 53 | 5.0 | 9.0 | 0.00 | 0.00 | 0.00 | 45 | 1017.8 |
| 20260906081905 | 81 | 349 | 1.0 | 7.0 | 0.00 | 0.00 | 0.00 | 46 | 1017.7 |
| 20260906081405 | 81 | 333 | 0.0 | 0.0 | 0.00 | 0.00 | 0.00 | 47 | 1017.7 |
| 20260906080905 | 80 | 28 | 1.0 | 5.0 | 0.00 | 0.00 | 0.00 | 47 | 1017.8 |
| 20260906080405 | 80 | 355 | 2.0 | 6.0 | 0.00 | 0.00 | 0.00 | 47 | 1017.7 |
| 20260906074905 | 79 | 4 | 0.0 | 0.0 | 0.00 | 0.00 | 0.00 | 50 | 1017.7 |
| 20260906074405 | 78 | 345 | 0.0 | 5.0 | 0.00 | 0.00 | 0.00 | 50 | 1017.7 |
| 20260906073905 | 78 | 351 | 0.0 | 0.0 | 0.00 | 0.00 | 0.00 | 51 | 1017.7 |
| 20260906073405 | 78 | 347 | 1.0 | 6.0 | 0.00 | 0.00 | 0.00 | 51 | 1017.7 |
| 20260906071404 | 76 | 10 | 3.0 | 6.0 | 0.00 | 0.00 | 0.00 | 53 | 1017.6 |
| 20260906070905 | 76 | 340 | 2.0 | 8.0 | 0.00 | 0.00 | 0.00 | 53 | 1017.6 |
| 20260906070405 | 76 | 350 | 3.0 | 7.0 | 0.00 | 0.00 | 0.00 | 54 | 1017.5 |
| 20260906064905 | 76 | 19 | 2.0 | 6.0 | 0.00 | 0.00 | 0.00 | 54 | 1017.2 |
| 20260906064404 | 76 | 3 | 2.0 | 5.0 | 0.00 | 0.00 | 0.00 | 54 | 1017.1 |
| 20260906063905 | 76 | 0 | 2.0 | 5.0 | 0.00 | 0.00 | 0.00 | 55 | 1017.1 |
| 20260906063404 | 76 | 355 | 3.0 | 9.0 | 0.00 | 0.00 | 0.00 | 55 | 1017.0 |
| 20260906061405 | 75 | 356 | 4.0 | 6.0 | 0.00 | 0.00 | 0.00 | 58 | 1016.8 |
| 20260906060905 | 75 | 9 | 3.0 | 7.0 | 0.00 | 0.00 | 0.00 | 59 | 1016.8 |
| 20260906060405 | 75 | 356 | 3.0 | 7.0 | 0.00 | 0.00 | 0.00 | 59 | 1016.9 |
| 20260906054905 | 75 | 13 | 3.0 | 6.0 | 0.00 | 0.00 | 0.00 | 61 | 1016.6 |
| 20260906054405 | 75 | 33 | 0.0 | 5.0 | 0.00 | 0.00 | 0.00 | 62 | 1016.6 |
| 20260906053904 | 75 | 355 | 2.0 | 8.0 | 0.00 | 0.00 | 0.00 | 63 | 1016.4 |
| 20260906053405 | 75 | 5 | 3.0 | 8.0 | 0.00 | 0.00 | 0.00 | 63 | 1016.5 |
| 20260906051905 | 76 | 2 | 3.0 | 5.0 | 0.00 | 0.00 | 0.00 | 61 | 1016.4 |
| 20260906051404 | 76 | 3 | 1.0 | 5.0 | 0.00 | 0.00 | 0.00 | 60 | 1016.5 |
| 20260906050904 | 76 | 358 | 2.0 | 3.0 | 0.00 | 0.00 | 0.00 | 59 | 1016.5 |
| 20260906044904 | 76 | 347 | 3.0 | 5.0 | 0.00 | 0.00 | 0.00 | 58 | 1016.3 |
| 20260906044405 | 76 | 341 | 3.0 | 5.0 | 0.00 | 0.00 | 0.00 | 57 | 1016.4 |
| 20260906043905 | 77 | 343 | 2.0 | 5.0 | 0.00 | 0.00 | 0.00 | 57 | 1016.4 |
| 20260906043405 | 77 | 350 | 4.0 | 7.0 | 0.00 | 0.00 | 0.00 | 57 | 1016.4 |
| 20260906041904 | 77 | 356 | 0.0 | 1.0 | 0.00 | 0.00 | 0.00 | 57 | 1016.4 |
| 20260906041405 | 77 | 342 | 0.0 | 5.0 | 0.00 | 0.00 | 0.00 | 57 | 1016.4 |
| 20260906040905 | 78 | 338 | 0.0 | 5.0 | 0.00 | 0.00 | 0.00 | 57 | 1016.5 |
| 20260906040404 | 78 | 346 | 2.0 | 6.0 | 0.00 | 0.00 | 0.00 | 56 | 1016.5 |
| 20260906034405 | 78 | 338 | 2.0 | 3.0 | 0.00 | 0.00 | 0.00 | 53 | 1016.7 |
| 20260906033904 | 77 | 346 | 0.0 | 0.0 | 0.00 | 0.00 | 0.00 | 53 | 1016.7 |
| 20260906033404 | 77 | 5 | 0.0 | 3.0 | 0.00 | 0.00 | 0.00 | 53 | 1016.6 |
| 20260906031905 | 77 | 283 | 0.0 | 0.0 | 0.00 | 0.00 | 0.00 | 53 | 1016.5 |
| 20260906031404 | 77 | 283 | 0.0 | 0.0 | 0.00 | 0.00 | 0.00 | 53 | 1016.5 |
| 20260906030905 | 78 | 283 | 0.0 | 0.0 | 0.00 | 0.00 | 0.00 | 53 | 1016.5 |
| 20260906024904 | 79 | 283 | 0.0 | 0.0 | 0.00 | 0.00 | 0.00 | 50 | 1016.4 |
| 20260906024404 | 79 | 283 | 0.0 | 0.0 | 0.00 | 0.00 | 0.00 | 50 | 1016.4 |
| 20260906023905 | 78 | 283 | 0.0 | 0.0 | 0.00 | 0.00 | 0.00 | 50 | 1016.5 |
| 20260906023404 | 78 | 283 | 0.0 | 0.0 | 0.00 | 0.00 | 0.00 | 51 | 1016.4 |
| 20260906021905 | 80 | 283 | 0.0 | 0.0 | 0.00 | 0.00 | 0.00 | 49 | 1016.4 |
| 20260906021405 | 80 | 283 | 0.0 | 0.0 | 0.00 | 0.00 | 0.00 | 47 | 1016.4 |
| 20260906020904 | 81 | 283 | 0.0 | 0.0 | 0.00 | 0.00 | 0.00 | 46 | 1016.4 |
| 20260906020405 | 81 | 283 | 0.0 | 0.0 | 0.00 | 0.00 | 0.00 | 46 | 1016.5 |
| 20260906014904 | 81 | 283 | 0.0 | 0.0 | 0.00 | 0.00 | 0.00 | 46 | 1016.4 |
| 20260906013905 | 81 | 282 | 0.0 | 0.0 | 0.00 | 0.00 | 0.00 | 45 | 1016.4 |
| 20260906013405 | 81 | 282 | 0.0 | 0.0 | 0.00 | 0.00 | 0.00 | 45 | 1016.4 |
| 20260906011904 | 82 | 281 | 0.0 | 0.0 | 0.00 | 0.00 | 0.00 | 44 | 1016.4 |
| 20260906011405 | 81 | 281 | 0.0 | 0.0 | 0.00 | 0.00 | 0.00 | 44 | 1016.5 |
| 20260906010905 | 81 | 278 | 0.0 | 0.0 | 0.00 | 0.00 | 0.00 | 45 | 1016.5 |
| 20260906010404 | 80 | 313 | 0.0 | 0.0 | 0.00 | 0.00 | 0.00 | 46 | 1016.6 |
| 20260906004404 | 80 | 323 | 0.0 | 0.0 | 0.00 | 0.00 | 0.00 | 47 | 1016.6 |
| 20260906003905 | 81 | 323 | 0.0 | 0.0 | 0.00 | 0.00 | 0.00 | 47 | 1016.6 |
| 20260906003405 | 81 | 323 | 0.0 | 0.0 | 0.00 | 0.00 | 0.00 | 48 | 1016.5 |
| 20260906001904 | 83 | 323 | 0.0 | 0.0 | 0.00 | 0.00 | 0.00 | 44 | 1016.3 |
| 20260906001404 | 84 | 323 | 0.0 | 0.0 | 0.00 | 0.00 | 0.00 | 43 | 1016.4 |
| 20260906000404 | 84 | 323 | 0.0 | 0.0 | 0.00 | 0.00 | 0.00 | 41 | 1016.5 |
| 20260905234905 | 85 | 323 | 0.0 | 0.0 | 0.00 | 0.00 | 0.00 | 39 | 1016.4 |
| 20260905234405 | 85 | 323 | 0.0 | 0.0 | 0.00 | 0.00 | 0.00 | 39 | 1016.4 |
| 20260905233905 | 85 | 323 | 0.0 | 0.0 | 0.00 | 0.00 | 0.00 | 39 | 1016.4 |
| 20260905233404 | 85 | 323 | 0.0 | 0.0 | 0.00 | 0.00 | 0.00 | 39 | 1016.5 |
| 20260905231904 | 85 | 323 | 0.0 | 0.0 | 0.00 | 0.00 | 0.00 | 39 | 1016.5 |
| 20260905230905 | 86 | 323 | 0.0 | 0.0 | 0.00 | 0.00 | 0.00 | 40 | 1016.5 |
| 20260905230405 | 86 | 323 | 0.0 | 0.0 | 0.00 | 0.00 | 0.00 | 41 | 1016.5 |
| 20260905224904 | 86 | 323 | 0.0 | 0.0 | 0.00 | 0.00 | 0.00 | 40 | 1016.4 |
| 20260905224404 | 86 | 323 | 0.0 | 0.0 | 0.00 | 0.00 | 0.00 | 40 | 1016.4 |
| 20260905223905 | 86 | 324 | 0.0 | 0.0 | 0.00 | 0.00 | 0.00 | 41 | 1016.3 |
| 20260905223404 | 86 | 324 | 0.0 | 0.0 | 0.00 | 0.00 | 0.00 | 40 | 1016.4 |
| 20260905221905 | 87 | 325 | 0.0 | 0.0 | 0.00 | 0.00 | 0.00 | 41 | 1016.3 |
| 20260905221405 | 87 | 325 | 0.0 | 0.0 | 0.00 | 0.00 | 0.00 | 41 | 1016.3 |
| 20260905220405 | 87 | 332 | 0.0 | 3.0 | 0.00 | 0.00 | 0.00 | 41 | 1016.2 |
| 20260905214905 | 88 | 337 | 1.0 | 3.0 | 0.00 | 0.00 | 0.00 | 41 | 1016.2 |
| 20260905214404 | 88 | 356 | 0.0 | 3.0 | 0.00 | 0.00 | 0.00 | 40 | 1016.1 |
| 20260905213905 | 88 | 358 | 0.0 | 5.0 | 0.00 | 0.00 | 0.00 | 41 | 1016.0 |
| 20260905213405 | 88 | 2 | 0.0 | 7.0 | 0.00 | 0.00 | 0.00 | 41 | 1016.0 |
| 20260905211905 | 89 | 341 | 1.0 | 7.0 | 0.00 | 0.00 | 0.00 | 40 | 1016.0 |
| 20260905210404 | 90 | 348 | 2.0 | 7.0 | 0.00 | 0.00 | 0.00 | 40 | 1015.8 |
| 20260905204904 | 90 | 350 | 1.0 | 3.0 | 0.00 | 0.00 | 0.00 | 40 | 1015.6 |
| 20260905204404 | 90 | 325 | 0.0 | 0.0 | 0.00 | 0.00 | 0.00 | 40 | 1015.6 |
| 20260905203904 | 90 | 309 | 0.0 | 0.0 | 0.00 | 0.00 | 0.00 | 40 | 1015.5 |
| 20260905203405 | 90 | 322 | 0.0 | 1.0 | 0.00 | 0.00 | 0.00 | 40 | 1015.5 |
| 20260905201905 | 90 | 342 | 0.0 | 0.0 | 0.00 | 0.00 | 0.00 | 41 | 1015.3 |
| 20260905200904 | 90 | 333 | 0.0 | 0.0 | 0.00 | 0.00 | 0.00 | 41 | 1015.3 |
| 20260905200405 | 90 | 334 | 0.0 | 0.0 | 0.00 | 0.00 | 0.00 | 41 | 1015.3 |
| 20260905194904 | 91 | 326 | 0.0 | 0.0 | 0.00 | 0.00 | 0.00 | 41 | 1015.1 |
| 20260905194405 | 91 | 330 | 0.0 | 0.0 | 0.00 | 0.00 | 0.00 | 41 | 1015.0 |
| 20260905193404 | 91 | 329 | 0.0 | 0.0 | 0.00 | 0.00 | 0.00 | 41 | 1014.9 |
| 20260905191405 | 92 | 319 | 0.0 | 0.0 | 0.00 | 0.00 | 0.00 | 40 | 1014.8 |
| 20260905190905 | 92 | 332 | 0.0 | 0.0 | 0.00 | 0.00 | 0.00 | 40 | 1014.7 |
| 20260905190405 | 92 | 336 | 0.0 | 0.0 | 0.00 | 0.00 | 0.00 | 40 | 1014.7 |